Time,TemperatureF,DewpointF,PressureIn,WindDirection,WindDirectionDegrees,WindSpeedMPH,WindSpeedGustMPH,Humidity,HourlyPrecipIn,Conditions,Clouds,dailyrainin,SoftwareType,DateUTC
2013-03-21 00:02:00,24.0,19.0,29.58,North,0,0.0,0.0,82,3.03,,,-99.99,,2013-03-21 05:02:00,
2013-03-21 00:12:00,24.0,19.0,29.58,North,0,0.0,0.0,82,3.03,,,-99.99,,2013-03-21 05:12:00,
2013-03-21 00:22:00,24.0,19.0,29.57,ENE,63,1.0,3.0,82,3.03,,,-99.99,,2013-03-21 05:22:00,
2013-03-21 00:32:00,24.0,19.0,29.57,SE,125,2.0,7.0,82,3.03,,,-99.99,,2013-03-21 05:32:00,
2013-03-21 00:43:00,23.0,18.0,29.56,North,0,0.0,0.0,82,3.03,,,-99.99,,2013-03-21 05:43:00,
2013-03-21 00:52:00,23.0,18.0,29.56,North,0,0.0,0.0,82,3.03,,,-99.99,,2013-03-21 05:52:00,
2013-03-21 01:02:00,23.0,19.0,29.57,North,0,0.0,0.0,83,3.03,,,-99.99,,2013-03-21 06:02:00,
2013-03-21 01:12:00,23.0,19.0,29.57,North,0,0.0,0.0,83,3.03,,,-99.99,,2013-03-21 06:12:00,
2013-03-21 01:22:00,23.0,19.0,29.57,NE,41,1.0,4.0,83,3.03,,,-99.99,,2013-03-21 06:22:00,
2013-03-21 01:32:00,23.0,18.0,29.57,SSE,156,2.0,7.0,82,3.03,,,-99.99,,2013-03-21 06:32:00,
2013-03-21 01:42:00,23.0,18.0,29.57,SSE,156,2.0,7.0,82,3.03,,,-99.99,,2013-03-21 06:42:00,
2013-03-21 01:52:00,23.0,18.0,29.57,East,93,1.0,3.0,82,3.03,,,-99.99,,2013-03-21 06:52:00,
2013-03-21 02:02:00,23.0,18.0,29.57,SE,138,4.0,5.0,82,3.03,,,-99.99,,2013-03-21 07:02:00,
2013-03-21 02:12:00,23.0,18.0,29.57,SE,138,4.0,5.0,82,3.03,,,-99.99,,2013-03-21 07:12:00,
2013-03-21 02:22:00,23.0,18.0,29.57,ESE,121,1.0,4.0,82,3.03,,,-99.99,,2013-03-21 07:22:00,
2013-03-21 02:32:00,23.0,19.0,29.57,SE,132,2.0,5.0,83,3.03,,,-99.99,,2013-03-21 07:32:00,
2013-03-21 02:42:00,23.0,19.0,29.57,SE,132,2.0,5.0,83,3.03,,,-99.99,,2013-03-21 07:42:00,
2013-03-21 02:52:00,23.0,19.0,29.57,SE,145,3.0,6.0,83,3.03,,,-99.99,,2013-03-21 07:52:00,
2013-03-21 03:02:00,23.0,19.0,29.57,ESE,113,2.0,5.0,83,3.03,,,-99.99,,2013-03-21 08:02:00,
2013-03-21 03:13:00,23.0,19.0,29.56,East,96,4.0,7.0,83,3.03,,,-99.99,,2013-03-21 08:13:00,
2013-03-21 03:22:00,23.0,19.0,29.56,East,96,4.0,7.0,83,3.03,,,-99.99,,2013-03-21 08:22:00,
2013-03-21 03:33:00,23.0,19.0,29.56,ESE,111,4.0,7.0,83,3.03,,,-99.99,,2013-03-21 08:33:00,
2013-03-21 03:42:00,23.0,19.0,29.56,ESE,111,4.0,7.0,83,3.03,,,-99.99,,2013-03-21 08:42:00,
2013-03-21 03:52:00,23.0,19.0,29.55,East,96,4.0,7.0,83,3.03,,,-99.99,,2013-03-21 08:52:00,
2013-03-21 04:02:00,23.0,19.0,29.55,SE,128,5.0,10.0,83,3.03,,,-99.99,,2013-03-21 09:02:00,
2013-03-21 04:11:00,23.0,19.0,29.55,SE,128,5.0,10.0,83,3.03,,,-99.99,,2013-03-21 09:11:00,
2013-03-21 04:21:00,23.0,19.0,29.54,NE,56,5.0,9.0,83,3.03,,,-99.99,,2013-03-21 09:21:00,
2013-03-21 04:33:00,23.0,19.0,29.54,East,82,4.0,9.0,84,3.03,,,-99.99,,2013-03-21 09:33:00,
2013-03-21 04:43:00,23.0,19.0,29.54,East,82,4.0,9.0,84,3.03,,,-99.99,,2013-03-21 09:43:00,
2013-03-21 04:53:00,23.0,19.0,29.54,SSE,149,3.0,6.0,84,3.03,,,-99.99,,2013-03-21 09:53:00,
2013-03-21 05:02:00,23.0,19.0,29.53,ESE,115,4.0,8.0,84,3.03,,,-99.99,,2013-03-21 10:02:00,
2013-03-21 05:12:00,23.0,19.0,29.53,ESE,115,4.0,8.0,84,3.03,,,-99.99,,2013-03-21 10:12:00,
2013-03-21 05:22:00,23.0,19.0,29.52,ESE,104,5.0,9.0,84,3.03,,,-99.99,,2013-03-21 10:22:00,
2013-03-21 05:33:00,23.0,19.0,29.52,ESE,114,6.0,10.0,84,3.03,,,-99.99,,2013-03-21 10:33:00,
2013-03-21 05:42:00,23.0,19.0,29.52,ESE,114,6.0,10.0,84,3.03,,,-99.99,,2013-03-21 10:42:00,
2013-03-21 05:53:00,23.0,19.0,29.51,ESE,117,5.0,9.0,84,3.03,,,-99.99,,2013-03-21 10:53:00,
2013-03-21 06:02:00,23.0,19.0,29.51,East,84,7.0,10.0,84,3.03,,,-99.99,,2013-03-21 11:02:00,
2013-03-21 06:12:00,23.0,19.0,29.51,East,84,7.0,10.0,84,3.03,,,-99.99,,2013-03-21 11:12:00,
2013-03-21 06:22:00,23.0,19.0,29.51,East,83,5.0,10.0,84,3.03,,,-99.99,,2013-03-21 11:22:00,
2013-03-21 06:33:00,23.0,19.0,29.51,North,11,5.0,9.0,84,3.03,,,-99.99,,2013-03-21 11:33:00,
2013-03-21 06:42:00,23.0,19.0,29.51,North,11,5.0,9.0,84,3.03,,,-99.99,,2013-03-21 11:42:00,
2013-03-21 06:52:00,23.0,19.0,29.51,ESE,114,5.0,9.0,84,3.03,,,-99.99,,2013-03-21 11:52:00,
2013-03-21 07:02:00,23.0,19.0,29.51,East,83,5.0,9.0,85,3.03,,,-99.99,,2013-03-21 12:02:00,
2013-03-21 07:12:00,23.0,19.0,29.51,East,83,5.0,9.0,85,3.03,,,-99.99,,2013-03-21 12:12:00,
2013-03-21 07:22:00,23.0,19.0,29.51,ESE,120,5.0,9.0,85,3.03,,,-99.99,,2013-03-21 12:22:00,
2013-03-21 07:32:00,23.0,19.0,29.51,SE,134,4.0,8.0,85,3.03,,,-99.99,,2013-03-21 12:32:00,
2013-03-21 07:42:00,23.0,19.0,29.51,SE,134,4.0,8.0,85,3.03,,,-99.99,,2013-03-21 12:42:00,
2013-03-21 07:53:00,23.0,19.0,29.52,SSE,148,6.0,9.0,85,3.03,,,-99.99,,2013-03-21 12:53:00,
2013-03-21 08:02:00,23.0,19.0,29.51,SE,136,5.0,9.0,85,3.03,,,-99.99,,2013-03-21 13:02:00,
2013-03-21 08:12:00,23.0,19.0,29.51,SE,136,5.0,9.0,85,3.03,,,-99.99,,2013-03-21 13:12:00,
2013-03-21 08:22:00,23.0,19.0,29.52,ESE,110,7.0,11.0,84,3.03,,,-99.99,,2013-03-21 13:22:00,
2013-03-21 08:32:00,23.0,19.0,29.52,SE,131,8.0,11.0,84,3.03,,,-99.99,,2013-03-21 13:32:00,
2013-03-21 08:42:00,23.0,19.0,29.52,SE,131,8.0,11.0,84,3.03,,,-99.99,,2013-03-21 13:42:00,
2013-03-21 08:52:00,23.0,19.0,29.52,SE,124,9.0,12.0,84,3.03,,,-99.99,,2013-03-21 13:52:00,
2013-03-21 09:02:00,23.0,19.0,29.51,East,90,9.0,12.0,84,3.03,,,-99.99,,2013-03-21 14:02:00,
2013-03-21 09:12:00,23.0,19.0,29.51,SSE,165,10.0,15.0,85,3.03,,,-99.99,,2013-03-21 14:12:00,
2013-03-21 09:22:00,23.0,19.0,29.51,SSE,165,10.0,15.0,85,3.03,,,-99.99,,2013-03-21 14:22:00,
2013-03-21 09:32:00,22.0,18.0,29.51,SE,142,10.0,13.0,86,3.03,,,-99.99,,2013-03-21 14:32:00,
2013-03-21 09:42:00,22.0,18.0,29.51,SE,142,10.0,13.0,86,3.03,,,-99.99,,2013-03-21 14:42:00,
2013-03-21 09:52:00,22.0,19.0,29.51,ESE,107,7.0,12.0,87,3.03,,,-99.99,,2013-03-21 14:52:00,
2013-03-21 10:03:00,22.0,19.0,29.50,ESE,105,9.0,13.0,88,3.03,,,-99.99,,2013-03-21 15:03:00,
2013-03-21 10:12:00,22.0,19.0,29.50,NNE,18,7.0,12.0,89,3.03,,,-99.99,,2013-03-21 15:12:00,
2013-03-21 10:22:00,22.0,19.0,29.50,NNE,18,7.0,12.0,89,3.03,,,-99.99,,2013-03-21 15:22:00,
2013-03-21 10:33:00,22.0,20.0,29.49,SE,129,8.0,13.0,90,3.03,,,-99.99,,2013-03-21 15:33:00,
2013-03-21 10:42:00,22.0,20.0,29.49,SE,129,8.0,13.0,90,3.03,,,-99.99,,2013-03-21 15:42:00,
2013-03-21 10:53:00,22.0,20.0,29.49,SE,129,8.0,13.0,90,3.03,,,-99.99,,2013-03-21 15:53:00,
2013-03-21 11:03:00,23.0,20.0,29.50,SE,146,10.0,13.0,89,3.03,,,-99.99,,2013-03-21 16:03:00,
2013-03-21 11:12:00,23.0,20.0,29.50,SE,146,10.0,13.0,89,3.03,,,-99.99,,2013-03-21 16:12:00,
2013-03-21 11:23:00,23.0,20.0,29.50,North,359,7.0,13.0,88,3.03,,,-99.99,,2013-03-21 16:23:00,
2013-03-21 11:33:00,24.0,21.0,29.50,SE,141,9.0,12.0,88,3.03,,,-99.99,,2013-03-21 16:33:00,
2013-03-21 11:42:00,24.0,21.0,29.50,SE,141,9.0,12.0,88,3.03,,,-99.99,,2013-03-21 16:42:00,
2013-03-21 11:53:00,24.0,21.0,29.50,SE,131,8.0,11.0,87,3.03,,,-99.99,,2013-03-21 16:53:00,
2013-03-21 12:02:00,25.0,21.0,29.49,East,98,8.0,10.0,86,3.03,,,-99.99,,2013-03-21 17:02:00,
2013-03-21 12:12:00,25.0,21.0,29.49,East,98,8.0,10.0,86,3.03,,,-99.99,,2013-03-21 17:12:00,
2013-03-21 12:23:00,25.0,21.0,29.48,ESE,120,8.0,11.0,85,3.03,,,-99.99,,2013-03-21 17:23:00,
2013-03-21 12:32:00,25.0,21.0,29.48,ESE,114,7.0,10.0,85,3.03,,,-99.99,,2013-03-21 17:32:00,
2013-03-21 12:42:00,25.0,21.0,29.48,ESE,114,7.0,10.0,85,3.03,,,-99.99,,2013-03-21 17:42:00,
2013-03-21 12:53:00,26.0,22.0,29.47,SE,128,9.0,12.0,84,3.03,,,-99.99,,2013-03-21 17:53:00,
2013-03-21 13:02:00,26.0,22.0,29.45,ESE,115,7.0,10.0,83,3.03,,,-99.99,,2013-03-21 18:02:00,
2013-03-21 13:12:00,26.0,22.0,29.45,ESE,115,7.0,10.0,83,3.03,,,-99.99,,2013-03-21 18:12:00,
2013-03-21 13:22:00,26.0,22.0,29.47,ESE,120,8.0,12.0,83,3.03,,,-99.99,,2013-03-21 18:22:00,
2013-03-21 13:32:00,27.0,23.0,29.46,SSE,149,6.0,10.0,83,3.03,,,-99.99,,2013-03-21 18:32:00,
2013-03-21 13:42:00,27.0,22.0,29.45,East,89,8.0,11.0,82,3.03,,,-99.99,,2013-03-21 18:42:00,
2013-03-21 13:52:00,27.0,22.0,29.45,East,89,8.0,11.0,82,3.03,,,-99.99,,2013-03-21 18:52:00,
2013-03-21 14:02:00,28.0,23.0,29.45,East,96,7.0,11.0,82,3.03,,,-99.99,,2013-03-21 19:02:00,
2013-03-21 14:12:00,28.0,23.0,29.45,East,96,7.0,11.0,82,3.03,,,-99.99,,2013-03-21 19:12:00,
2013-03-21 14:22:00,28.0,23.0,29.45,SE,127,7.0,12.0,81,3.03,,,-99.99,,2013-03-21 19:22:00,
2013-03-21 14:32:00,29.0,24.0,29.44,ESE,103,6.0,10.0,81,3.03,,,-99.99,,2013-03-21 19:32:00,
2013-03-21 14:42:00,29.0,24.0,29.44,ESE,103,6.0,10.0,81,3.03,,,-99.99,,2013-03-21 19:42:00,
2013-03-21 14:53:00,29.0,24.0,29.43,SE,128,7.0,11.0,80,3.03,,,-99.99,,2013-03-21 19:53:00,
2013-03-21 15:02:00,28.0,23.0,29.43,SSE,162,6.0,10.0,80,3.03,,,-99.99,,2013-03-21 20:02:00,
2013-03-21 15:12:00,28.0,23.0,29.43,SSE,162,6.0,10.0,80,3.03,,,-99.99,,2013-03-21 20:12:00,
2013-03-21 15:22:00,28.0,22.0,29.40,SE,138,6.0,10.0,79,3.03,,,-99.99,,2013-03-21 20:22:00,
2013-03-21 15:33:00,29.0,23.0,29.42,SE,138,5.0,9.0,78,3.03,,,-99.99,,2013-03-21 20:33:00,
2013-03-21 15:42:00,29.0,23.0,29.42,SE,138,5.0,9.0,78,3.03,,,-99.99,,2013-03-21 20:42:00,
2013-03-21 15:53:00,29.0,23.0,29.41,ENE,66,5.0,9.0,77,3.03,,,-99.99,,2013-03-21 20:53:00,
2013-03-21 16:02:00,30.0,23.0,29.40,East,93,5.0,11.0,76,3.03,,,-99.99,,2013-03-21 21:02:00,
2013-03-21 16:12:00,30.0,23.0,29.40,East,93,5.0,11.0,76,3.03,,,-99.99,,2013-03-21 21:12:00,
2013-03-21 16:22:00,31.0,24.0,29.40,ESE,108,6.0,10.0,75,3.03,,,-99.99,,2013-03-21 21:22:00,
2013-03-21 16:32:00,32.0,25.0,29.40,ENE,73,5.0,9.0,74,3.03,,,-99.99,,2013-03-21 21:32:00,
2013-03-21 16:43:00,32.0,25.0,29.40,ENE,73,5.0,9.0,74,3.03,,,-99.99,,2013-03-21 21:43:00,
2013-03-21 16:53:00,33.0,25.0,29.39,East,101,7.0,10.0,73,3.03,,,-99.99,,2013-03-21 21:53:00,
2013-03-21 17:02:00,34.0,26.0,29.39,ENE,76,5.0,8.0,71,3.03,,,-99.99,,2013-03-21 22:02:00,
2013-03-21 17:13:00,34.0,26.0,29.39,ENE,76,5.0,8.0,71,3.03,,,-99.99,,2013-03-21 22:13:00,
2013-03-21 17:23:00,33.0,24.0,29.39,SSE,153,6.0,10.0,70,3.03,,,-99.99,,2013-03-21 22:23:00,
2013-03-21 17:33:00,33.0,24.0,29.39,ESE,110,6.0,10.0,70,3.03,,,-99.99,,2013-03-21 22:33:00,
2013-03-21 17:42:00,33.0,24.0,29.39,ESE,110,6.0,10.0,70,3.03,,,-99.99,,2013-03-21 22:42:00,
2013-03-21 17:52:00,32.0,23.0,29.39,SE,138,4.0,9.0,70,3.03,,,-99.99,,2013-03-21 22:52:00,
2013-03-21 18:02:00,32.0,23.0,29.39,ESE,113,4.0,7.0,70,3.03,,,-99.99,,2013-03-21 23:02:00,
2013-03-21 18:12:00,32.0,23.0,29.39,ESE,113,4.0,7.0,70,3.03,,,-99.99,,2013-03-21 23:12:00,
2013-03-21 18:22:00,31.0,22.0,29.40,ESE,121,6.0,13.0,69,3.03,,,-99.99,,2013-03-21 23:22:00,
2013-03-21 18:32:00,31.0,22.0,29.40,SE,142,6.0,11.0,68,3.03,,,-99.99,,2013-03-21 23:32:00,
2013-03-21 18:42:00,31.0,22.0,29.40,SE,142,6.0,11.0,68,3.03,,,-99.99,,2013-03-21 23:42:00,
2013-03-21 18:53:00,31.0,22.0,29.39,ESE,121,5.0,10.0,69,3.03,,,-99.99,,2013-03-21 23:53:00,
2013-03-21 19:02:00,31.0,22.0,29.41,SSE,162,5.0,10.0,69,3.03,,,-99.99,,2013-03-22 00:02:00,
2013-03-21 19:12:00,31.0,22.0,29.41,SSE,162,5.0,10.0,69,3.03,,,-99.99,,2013-03-22 00:12:00,
2013-03-21 19:22:00,31.0,22.0,29.42,ESE,120,4.0,7.0,69,3.03,,,-99.99,,2013-03-22 00:22:00,
2013-03-21 19:32:00,31.0,22.0,29.41,East,93,2.0,6.0,70,3.03,,,-99.99,,2013-03-22 00:32:00,
2013-03-21 19:42:00,31.0,22.0,29.41,East,93,2.0,6.0,70,3.03,,,-99.99,,2013-03-22 00:42:00,
2013-03-21 19:52:00,31.0,23.0,29.41,ESE,114,1.0,4.0,71,3.03,,,-99.99,,2013-03-22 00:52:00,
2013-03-21 20:02:00,31.0,23.0,29.41,ESE,115,3.0,7.0,71,3.03,,,-99.99,,2013-03-22 01:02:00,
2013-03-21 20:12:00,31.0,23.0,29.41,ESE,115,3.0,7.0,71,3.03,,,-99.99,,2013-03-22 01:12:00,
2013-03-21 20:22:00,31.0,23.0,29.41,ESE,111,4.0,7.0,71,3.03,,,-99.99,,2013-03-22 01:22:00,
2013-03-21 20:32:00,31.0,23.0,29.42,ESE,107,1.0,5.0,71,3.03,,,-99.99,,2013-03-22 01:32:00,
2013-03-21 20:42:00,31.0,23.0,29.42,ESE,107,1.0,5.0,71,3.03,,,-99.99,,2013-03-22 01:42:00,
2013-03-21 20:53:00,31.0,23.0,29.43,ESE,111,2.0,6.0,71,3.03,,,-99.99,,2013-03-22 01:53:00,
2013-03-21 21:02:00,31.0,23.0,29.43,North,0,0.0,0.0,71,3.03,,,-99.99,,2013-03-22 02:02:00,
2013-03-21 21:12:00,31.0,23.0,29.43,North,0,0.0,0.0,71,3.03,,,-99.99,,2013-03-22 02:12:00,
2013-03-21 21:22:00,31.0,23.0,29.44,North,0,0.0,0.0,72,3.03,,,-99.99,,2013-03-22 02:22:00,
2013-03-21 21:32:00,31.0,23.0,29.44,North,0,0.0,0.0,73,3.03,,,-99.99,,2013-03-22 02:32:00,
2013-03-21 21:42:00,31.0,23.0,29.44,North,0,0.0,0.0,73,3.03,,,-99.99,,2013-03-22 02:42:00,
2013-03-21 21:52:00,31.0,24.0,29.45,North,0,0.0,0.0,74,3.03,,,-99.99,,2013-03-22 02:52:00,
2013-03-21 22:02:00,31.0,24.0,29.45,North,0,0.0,0.0,74,3.03,,,-99.99,,2013-03-22 03:02:00,
2013-03-21 22:12:00,31.0,24.0,29.45,North,0,0.0,0.0,74,3.03,,,-99.99,,2013-03-22 03:12:00,
2013-03-21 22:22:00,31.0,24.0,29.45,North,0,0.0,0.0,75,3.03,,,-99.99,,2013-03-22 03:22:00,
2013-03-21 22:33:00,31.0,24.0,29.45,North,0,0.0,0.0,75,3.03,,,-99.99,,2013-03-22 03:33:00,
2013-03-21 22:43:00,31.0,24.0,29.45,North,0,0.0,0.0,75,3.03,,,-99.99,,2013-03-22 03:43:00,
2013-03-21 22:53:00,30.0,23.0,29.45,North,0,0.0,0.0,76,3.03,,,-99.99,,2013-03-22 03:53:00,
2013-03-21 23:03:00,30.0,24.0,29.46,North,0,0.0,0.0,77,3.03,,,-99.99,,2013-03-22 04:03:00,
2013-03-21 23:12:00,30.0,24.0,29.46,North,0,0.0,0.0,77,3.03,,,-99.99,,2013-03-22 04:12:00,
2013-03-21 23:23:00,30.0,24.0,29.47,North,0,0.0,0.0,77,3.03,,,-99.99,,2013-03-22 04:23:00,
2013-03-21 23:32:00,30.0,24.0,29.46,North,0,0.0,0.0,78,3.03,,,-99.99,,2013-03-22 04:32:00,
2013-03-21 23:42:00,30.0,24.0,29.46,North,0,0.0,0.0,78,3.03,,,-99.99,,2013-03-22 04:42:00,
2013-03-21 23:52:00,30.0,24.0,29.46,North,0,0.0,0.0,78,3.03,,,-99.99,,2013-03-22 04:52:00,